Simultaneous Nadir Overpasses (SNOs) Predictions

Prediction of SNOs between NOAA-20 and AQUA Satellite Orbit:

Table of predicted SNOs for the next 14.0 days since TLE Epoch: 4/24/2020
Index Date (NOAA-20) Time (NOAA-20) Lat,Lon (NOAA-20) SZA (NOAA-20 ) Date (AQUA) Time (AQUA) Lat,Lon (AQUA) SZA (AQUA ) Distance(km) Time Diff (sec)
1 04/26/2020 13:40:00 75.41,-147.84 84.32 04/26/2020 13:40:53 75.40,-147.87 84.28 0.77 53
2 04/26/2020 14:30:20 -76.59, 23.49 97.14 04/26/2020 14:29:56 -76.58, 23.41 97.10 2.16 24
3 04/29/2020 05:56:44 75.91, -30.48 82.88 04/29/2020 05:57:11 75.90, -30.53 82.87 1.51 27
4 04/29/2020 06:47:06 -76.98, 140.78 98.47 04/29/2020 06:46:16 -76.97, 140.67 98.40 2.93 50
5 05/01/2020 21:25:45 -67.22, -98.84 88.41 05/01/2020 21:26:59 -67.06, -98.00 88.59 40.59 74
6 05/01/2020 22:13:29 76.35, 86.83 81.53 05/01/2020 22:13:30 76.34, 86.73 81.55 2.81 1
7 05/01/2020 23:02:06 -80.82, -73.54 105.68 05/01/2020 23:00:52 -81.14, -74.27 105.52 38.02 74
8 05/04/2020 13:40:01 -75.32, 31.89 98.00 05/04/2020 13:40:52 -75.33, 31.93 98.05 1.18 51
9 05/04/2020 14:30:21 76.43,-157.13 80.66 05/04/2020 14:29:55 76.43,-157.09 80.67 1.30 26
10 05/07/2020 05:56:44 -75.87, 149.37 99.39 05/07/2020 05:57:09 -75.86, 149.36 99.41 0.47 25




NCC Satellite Simultaneous Nadir Overpasses (SNOs) Prediction Service
